CW2236 Weather Reports


time (UTC)temp
F
wind
direction
speed
knots
gust
knots
rain 1hr
in
rain 24hr
in
rain mn
in
humidity
%
barometer
mb
20260507060602 54 304 9.6 14.8 0.00 0.07 0.00 95 1007.1
20260507054603 55 301 9.6 14.8 0.00 0.07 0.00 96 1007.2
20260507053603 56 288 8.7 13.9 0.00 0.07 0.00 97 1007.5
20260507052623 56 285 9.6 14.8 0.00 0.07 0.00 97 1007.6
20260507051603 56 277 9.6 13.9 0.00 0.07 0.00 97 1007.5
20260507050602 57 275 7.8 13.0 0.00 0.07 0.00 97 1007.3
20260507045603 57 278 8.7 12.2 0.01 0.07 0.07 97 1007.5
20260507044602 57 269 8.7 13.9 0.01 0.07 0.07 97 1007.4
20260507043603 57 261 11.3 14.8 0.01 0.07 0.07 97 1007.5
20260507042602 57 252 8.7 13.9 0.01 0.07 0.07 97 1007.3
20260507041603 57 246 9.6 15.6 0.01 0.07 0.07 97 1007.4
20260507040644 57 246 9.6 13.9 0.00 0.06 0.06 97 1007.3
20260507035603 57 248 7.8 15.6 0.00 0.06 0.06 97 1007.5
20260507034602 56 230 11.3 18.2 0.00 0.06 0.06 97 1007.5
20260507032602 56 217 12.2 18.2 0.00 0.06 0.06 97 1007.4
20260507031624 56 222 12.2 17.4 0.00 0.06 0.06 97 1007.2
20260507030603 56 221 10.4 16.5 0.00 0.06 0.06 97 1007.1
20260507025603 56 215 11.3 17.4 0.00 0.06 0.06 97 1007.0
20260507024602 56 213 12.2 18.2 0.00 0.06 0.06 97 1006.9
20260507023603 56 212 12.2 19.1 0.00 0.06 0.06 97 1007.0
20260507021603 56 211 12.2 20.0 0.00 0.06 0.06 96 1007.0
20260507020602 56 209 13.0 19.1 0.00 0.06 0.06 96 1007.1
20260507015603 55 197 12.2 19.1 0.00 0.06 0.06 96 1007.0
20260507014602 55 198 12.2 20.9 0.00 0.06 0.06 96 1007.2
20260507013603 55 202 13.0 20.0 0.00 0.06 0.06 96 1007.3
20260507012603 55 205 12.2 18.2 0.00 0.06 0.06 96 1007.5
20260507011603 55 212 13.0 19.1 0.00 0.06 0.06 96 1007.6
20260507010603 55 212 11.3 17.4 0.00 0.06 0.06 96 1007.6
20260507005603 55 216 13.0 20.0 0.00 0.06 0.06 96 1007.7
20260507004602 55 207 11.3 21.7 0.00 0.06 0.06 96 1007.6
20260507002624 55 201 15.6 29.5 0.00 0.06 0.06 96 1007.4
20260507001602 55 192 17.4 26.9 0.00 0.06 0.06 96 1007.4
20260507000603 55 200 14.8 27.8 0.00 0.06 0.06 96 1007.3
20260506235624 55 195 15.6 28.7 0.00 0.06 0.06 96 1007.3
20260506234624 55 191 18.2 28.7 0.00 0.06 0.06 96 1007.2
20260506233603 55 193 16.5 28.7 0.00 0.06 0.06 95 1007.1
20260506232602 55 191 17.4 26.9 0.00 0.06 0.06 95 1007.2
20260506231603 55 184 19.1 30.4 0.00 0.06 0.06 95 1007.2
20260506230602 55 193 14.8 24.3 0.00 0.06 0.06 95 1007.3
20260506225602 55 191 13.9 25.2 0.01 0.06 0.06 95 1007.4
20260506224603 56 188 13.0 26.9 0.01 0.06 0.06 95 1007.3
20260506223602 56 188 13.9 31.3 0.01 0.06 0.06 95 1007.4
20260506222645 56 189 13.0 29.5 0.00 0.05 0.05 95 1007.6
20260506221603 56 187 16.5 26.9 0.00 0.05 0.05 94 1007.6
20260506220603 56 188 15.6 30.4 0.00 0.05 0.05 94 1007.8
20260506215602 57 194 17.4 27.8 0.02 0.05 0.05 94 1007.8
20260506214603 57 196 15.6 25.2 0.01 0.04 0.04 94 1007.9
20260506213602 57 191 16.5 26.9 0.01 0.04 0.04 93 1007.9
20260506212602 57 197 16.5 29.5 0.01 0.04 0.04 93 1007.9
20260506211624 57 192 14.8 31.3 0.01 0.04 0.04 93 1008.0
20260506210602 58 198 17.4 24.3 0.00 0.03 0.03 92 1008.0
20260506205603 58 192 17.4 32.2 0.02 0.02 0.02 91 1008.1
20260506204602 58 192 17.4 28.7 0.01 0.01 0.01 90 1008.0
20260506203603 59 195 15.6 28.7 0.01 0.01 0.01 90 1008.3
20260506202602 59 193 20.9 31.3 0.00 0.00 0.00 89 1008.3
20260506201603 59 188 20.9 31.3 0.00 0.00 0.00 87 1008.3
20260506200603 60 181 14.8 27.8 0.00 0.00 0.00 85 1008.4
20260506195603 61 196 20.0 31.3 0.00 0.00 0.00 84 1008.4
20260506194602 61 188 17.4 26.9 0.00 0.00 0.00 81 1008.4
20260506193603 61 187 16.5 28.7 0.00 0.00 0.00 79 1008.6
20260506192624 62 196 16.5 24.3 0.00 0.00 0.00 78 1008.6
20260506191603 63 191 14.8 27.8 0.00 0.00 0.00 75 1008.8
20260506190603 64 198 14.8 32.2 0.00 0.00 0.00 72 1008.7
20260506185603 64 202 14.8 33.0 0.00 0.00 0.00 70 1008.6
20260506184603 65 201 15.6 29.5 0.00 0.00 0.00 70 1008.7
20260506183602 65 202 18.2 39.1 0.00 0.00 0.00 70 1008.7
20260506182602 65 196 20.9 38.2 0.00 0.00 0.00 70 1008.8
20260506181603 65 186 16.5 35.6 0.00 0.00 0.00 70 1008.9
20260506180602 65 185 17.4 32.2 0.00 0.00 0.00 69 1008.9
20260506175624 67 185 19.1 31.3 0.00 0.00 0.00 66 1009.2
20260506174603 68 188 13.0 31.3 0.00 0.00 0.00 64 1009.3
20260506173603 67 206 19.1 34.8 0.00 0.00 0.00 65 1009.4
20260506172603 67 189 19.1 33.0 0.00 0.00 0.00 66 1009.3
20260506171623 66 190 20.9 29.5 0.00 0.00 0.00 66 1009.3
20260506170603 67 180 20.9 33.9 0.00 0.00 0.00 67 1009.3
20260506165603 66 182 20.9 33.0 0.00 0.00 0.00 67 1009.4
20260506164603 66 189 20.9 39.1 0.00 0.00 0.00 67 1009.5
20260506163603 67 189 20.0 33.0 0.00 0.00 0.00 67 1009.7
20260506162603 67 187 18.2 31.3 0.00 0.00 0.00 66 1009.9
20260506161602 67 194 20.0 35.6 0.00 0.00 0.00 66 1009.9
20260506160603 67 182 13.9 27.8 0.00 0.00 0.00 66 1010.1
20260506155602 67 178 17.4 28.7 0.00 0.00 0.00 66 1010.2
20260506154603 67 181 14.8 29.5 0.00 0.00 0.00 66 1010.4
20260506153602 68 179 17.4 27.8 0.00 0.00 0.00 65 1010.6
20260506152603 67 189 17.4 29.5 0.00 0.00 0.00 66 1010.8
20260506151602 67 187 17.4 25.2 0.00 0.00 0.00 65 1010.8
20260506150603 68 201 20.9 32.2 0.00 0.00 0.00 64 1010.7
20260506145603 67 191 21.7 32.2 0.00 0.00 0.00 65 1010.7
20260506144603 67 187 19.1 27.8 0.00 0.00 0.00 66 1010.6
20260506143603 66 190 16.5 32.2 0.00 0.00 0.00 66 1010.5
20260506142602 66 187 19.1 33.9 0.00 0.00 0.00 68 1010.5
20260506141603 66 184 17.4 28.7 0.00 0.00 0.00 68 1010.4
20260506140602 66 184 15.6 32.2 0.00 0.00 0.00 70 1010.5
20260506135603 65 189 19.1 27.8 0.00 0.00 0.00 70 1010.4
20260506134602 65 188 15.6 26.1 0.00 0.00 0.00 70 1010.6
20260506133603 65 188 17.4 24.3 0.00 0.00 0.00 71 1011.1
20260506132623 64 191 12.2 25.2 0.00 0.00 0.00 75 1011.1
20260506131603 64 189 15.6 26.1 0.00 0.00 0.00 73 1011.2
20260506130603 62 197 15.6 28.7 0.00 0.00 0.00 76 1011.2
20260506125603 62 188 15.6 23.5 0.00 0.00 0.00 78 1011.0
20260506124603 61 199 15.6 27.8 0.00 0.00 0.00 80 1011.2
20260506123624 60 191 13.0 32.2 0.00 0.00 0.00 82 1011.1
20260506121603 59 187 15.6 24.3 0.00 0.00 0.00 83 1010.9
20260506120603 58 192 15.6 31.3 0.00 0.00 0.00 85 1011.4
20260506115602 58 191 16.5 27.8 0.00 0.00 0.00 85 1011.5
20260506114603 58 187 17.4 24.3 0.00 0.00 0.00 85 1011.8
20260506113602 57 188 15.6 27.8 0.00 0.00 0.00 86 1011.7
20260506112603 57 187 13.9 27.8 0.00 0.00 0.00 87 1011.7
20260506111602 57 181 15.6 29.5 0.00 0.00 0.00 88 1011.5
20260506110624 56 191 17.4 25.2 0.00 0.00 0.00 89 1011.5
20260506105603 56 184 13.9 25.2 0.00 0.00 0.00 89 1011.5
20260506103602 56 185 13.9 22.6 0.00 0.00 0.00 88 1011.6
20260506102645 56 187 15.6 26.1 0.00 0.00 0.00 88 1011.5
20260506101602 56 188 14.8 30.4 0.00 0.00 0.00 88 1011.5
20260506100603 56 190 16.5 26.1 0.00 0.00 0.00 87 1011.4
20260506095603 56 192 16.5 25.2 0.00 0.00 0.00 87 1011.2
20260506094603 56 190 18.2 24.3 0.00 0.00 0.00 87 1011.2
20260506093602 56 200 15.6 26.1 0.00 0.00 0.00 87 1011.2
20260506091602 56 192 17.4 26.1 0.00 0.00 0.00 87 1011.2
20260506090624 57 196 14.8 26.9 0.00 0.00 0.00 86 1011.3
20260506085602 57 193 17.4 30.4 0.00 0.00 0.00 86 1011.3
20260506084603 57 185 15.6 30.4 0.00 0.00 0.00 85 1011.4
20260506083602 57 191 18.2 26.9 0.00 0.00 0.00 85 1011.4
20260506082603 57 192 16.5 27.8 0.00 0.00 0.00 83 1011.5
20260506081603 58 190 18.2 27.8 0.00 0.00 0.00 83 1011.3
20260506080603 58 192 16.5 27.8 0.00 0.00 0.00 82 1011.3
20260506072603 58 200 16.5 27.8 0.00 0.00 0.00 82 1011.2
20260506071602 58 195 19.1 32.2 0.00 0.00 0.00 82 1011.3
20260506070603 58 192 20.0 27.8 0.00 0.00 0.00 81 1011.2
20260506061602 58 200 17.4 30.4 0.00 0.00 0.00 78 1011.3